| time (UTC) | temp F | wind direction | speed MPH | gust MPH | rain 1hr in | rain 24hr in | rain mn in | humidity % | barometer mb |
| 20260905184104 | 99 | 155 | 9.0 | 18.0 | 0.00 | 0.00 | 0.00 | 42 | 1014.0 |
| 20260905183605 | 99 | 164 | 7.0 | 13.0 | 0.00 | 0.00 | 0.00 | 43 | 1014.1 |
| 20260905183104 | 99 | 168 | 8.0 | 13.0 | 0.00 | 0.00 | 0.00 | 41 | 1014.2 |
| 20260905182604 | 98 | 153 | 7.0 | 10.0 | 0.00 | 0.00 | 0.00 | 44 | 1014.2 |
| 20260905182105 | 98 | 164 | 2.0 | 13.0 | 0.00 | 0.00 | 0.00 | 44 | 1014.2 |
| 20260905181105 | 97 | 167 | 9.0 | 14.0 | 0.00 | 0.00 | 0.00 | 45 | 1014.3 |
| 20260905180605 | 97 | 159 | 6.0 | 12.0 | 0.00 | 0.00 | 0.00 | 46 | 1014.4 |
| 20260905175605 | 97 | 191 | 6.0 | 12.0 | 0.00 | 0.00 | 0.00 | 45 | 1014.4 |
| 20260905175104 | 97 | 167 | 6.0 | 12.0 | 0.00 | 0.00 | 0.00 | 45 | 1014.5 |
| 20260905174606 | 97 | 159 | 7.0 | 12.0 | 0.00 | 0.00 | 0.00 | 45 | 1014.6 |
| 20260905174105 | 97 | 190 | 9.0 | 15.0 | 0.00 | 0.00 | 0.00 | 46 | 1014.6 |
| 20260905173605 | 96 | 150 | 5.0 | 15.0 | 0.00 | 0.00 | 0.00 | 46 | 1014.7 |
| 20260905173105 | 97 | 182 | 7.0 | 14.0 | 0.00 | 0.00 | 0.00 | 46 | 1014.7 |
| 20260905172605 | 98 | 163 | 6.0 | 14.0 | 0.00 | 0.00 | 0.00 | 46 | 1014.8 |
| 20260905172105 | 97 | 135 | 8.0 | 14.0 | 0.00 | 0.00 | 0.00 | 46 | 1014.8 |
| 20260905171105 | 96 | 179 | 6.0 | 13.0 | 0.00 | 0.00 | 0.00 | 47 | 1015.0 |
| 20260905170105 | 96 | 112 | 7.0 | 14.0 | 0.00 | 0.00 | 0.00 | 48 | 1015.0 |
| 20260905165105 | 95 | 131 | 3.0 | 12.0 | 0.00 | 0.00 | 0.00 | 48 | 1015.0 |
| 20260905164604 | 95 | 138 | 6.0 | 13.0 | 0.00 | 0.00 | 0.00 | 49 | 1015.1 |
| 20260905164105 | 95 | 167 | 8.0 | 13.0 | 0.00 | 0.00 | 0.00 | 50 | 1015.1 |
| 20260905163605 | 95 | 165 | 6.0 | 9.0 | 0.00 | 0.00 | 0.00 | 50 | 1015.1 |
| 20260905163105 | 94 | 205 | 5.0 | 12.0 | 0.00 | 0.00 | 0.00 | 50 | 1015.1 |
| 20260905162605 | 94 | 160 | 8.0 | 12.0 | 0.00 | 0.00 | 0.00 | 50 | 1015.1 |
| 20260905161605 | 94 | 197 | 7.0 | 12.0 | 0.00 | 0.00 | 0.00 | 52 | 1015.1 |
| 20260905160105 | 93 | 192 | 8.0 | 13.0 | 0.00 | 0.00 | 0.00 | 53 | 1015.1 |
| 20260905155105 | 93 | 179 | 9.0 | 14.0 | 0.00 | 0.00 | 0.00 | 53 | 1015.0 |
| 20260905154605 | 92 | 189 | 7.0 | 12.0 | 0.00 | 0.00 | 0.00 | 54 | 1015.0 |
| 20260905154104 | 92 | 189 | 6.0 | 14.0 | 0.00 | 0.00 | 0.00 | 54 | 1015.0 |
| 20260905153605 | 92 | 195 | 9.0 | 14.0 | 0.00 | 0.00 | 0.00 | 54 | 1015.0 |
| 20260905153104 | 92 | 203 | 8.0 | 12.0 | 0.00 | 0.00 | 0.00 | 55 | 1015.0 |
| 20260905152604 | 91 | 197 | 8.0 | 13.0 | 0.00 | 0.00 | 0.00 | 55 | 1014.9 |
| 20260905152104 | 91 | 200 | 6.0 | 13.0 | 0.00 | 0.00 | 0.00 | 56 | 1014.9 |
| 20260905151605 | 90 | 208 | 8.0 | 13.0 | 0.00 | 0.00 | 0.00 | 56 | 1014.9 |
| 20260905151105 | 90 | 199 | 9.0 | 13.0 | 0.00 | 0.00 | 0.00 | 57 | 1015.0 |
| 20260905150605 | 90 | 193 | 7.0 | 13.0 | 0.00 | 0.00 | 0.00 | 57 | 1014.9 |
| 20260905150105 | 89 | 190 | 10.0 | 13.0 | 0.00 | 0.00 | 0.00 | 57 | 1014.9 |
| 20260905145604 | 89 | 218 | 8.0 | 14.0 | 0.00 | 0.00 | 0.00 | 58 | 1015.0 |
| 20260905145105 | 88 | 205 | 9.0 | 14.0 | 0.00 | 0.00 | 0.00 | 59 | 1015.0 |
| 20260905144604 | 88 | 193 | 9.0 | 14.0 | 0.00 | 0.00 | 0.00 | 59 | 1014.9 |
| 20260905144105 | 88 | 198 | 9.0 | 13.0 | 0.00 | 0.00 | 0.00 | 60 | 1015.0 |
| 20260905143604 | 87 | 201 | 9.0 | 14.0 | 0.00 | 0.00 | 0.00 | 60 | 1015.0 |
| 20260905143104 | 87 | 199 | 10.0 | 14.0 | 0.00 | 0.00 | 0.00 | 61 | 1015.0 |
| 20260905142605 | 87 | 208 | 10.0 | 14.0 | 0.00 | 0.00 | 0.00 | 61 | 1015.0 |
| 20260905142104 | 86 | 186 | 8.0 | 14.0 | 0.00 | 0.00 | 0.00 | 62 | 1015.0 |
| 20260905141105 | 86 | 209 | 7.0 | 12.0 | 0.00 | 0.00 | 0.00 | 63 | 1015.0 |
| 20260905140605 | 85 | 183 | 9.0 | 12.0 | 0.00 | 0.00 | 0.00 | 64 | 1014.9 |
| 20260905140104 | 85 | 176 | 7.0 | 13.0 | 0.00 | 0.00 | 0.00 | 64 | 1015.0 |
| 20260905135605 | 84 | 170 | 8.0 | 15.0 | 0.00 | 0.00 | 0.00 | 65 | 1014.9 |
| 20260905135105 | 84 | 185 | 9.0 | 15.0 | 0.00 | 0.00 | 0.00 | 66 | 1014.9 |
| 20260905134604 | 84 | 185 | 9.0 | 12.0 | 0.00 | 0.00 | 0.00 | 66 | 1014.8 |
| 20260905134104 | 83 | 192 | 8.0 | 12.0 | 0.00 | 0.00 | 0.00 | 67 | 1014.8 |
| 20260905133605 | 83 | 195 | 8.0 | 12.0 | 0.00 | 0.00 | 0.00 | 67 | 1014.8 |
| 20260905133105 | 83 | 176 | 7.0 | 16.0 | 0.00 | 0.00 | 0.00 | 68 | 1014.8 |
| 20260905132604 | 82 | 178 | 9.0 | 16.0 | 0.00 | 0.00 | 0.00 | 68 | 1014.8 |
| 20260905132105 | 82 | 187 | 7.0 | 12.0 | 0.00 | 0.00 | 0.00 | 69 | 1014.8 |
| 20260905131604 | 82 | 182 | 7.0 | 12.0 | 0.00 | 0.00 | 0.00 | 70 | 1014.8 |
| 20260905131105 | 81 | 186 | 7.0 | 12.0 | 0.00 | 0.00 | 0.00 | 70 | 1014.6 |
| 20260905130105 | 81 | 173 | 9.0 | 12.0 | 0.00 | 0.00 | 0.00 | 70 | 1014.5 |
| 20260905125605 | 81 | 186 | 7.0 | 12.0 | 0.00 | 0.00 | 0.00 | 70 | 1014.4 |
| 20260905125105 | 80 | 180 | 7.0 | 12.0 | 0.00 | 0.00 | 0.00 | 71 | 1014.5 |
| 20260905124605 | 80 | 180 | 6.0 | 10.0 | 0.00 | 0.00 | 0.00 | 71 | 1014.4 |
| 20260905124104 | 80 | 177 | 6.0 | 10.0 | 0.00 | 0.00 | 0.00 | 71 | 1014.4 |
| 20260905122605 | 79 | 179 | 6.0 | 9.0 | 0.00 | 0.00 | 0.00 | 72 | 1014.2 |
| 20260905122104 | 79 | 177 | 6.0 | 9.0 | 0.00 | 0.00 | 0.00 | 72 | 1014.2 |
| 20260905121104 | 79 | 180 | 5.0 | 8.0 | 0.00 | 0.00 | 0.00 | 72 | 1014.1 |
| 20260905120605 | 79 | 177 | 6.0 | 8.0 | 0.00 | 0.00 | 0.00 | 72 | 1014.1 |
| 20260905120104 | 79 | 173 | 5.0 | 9.0 | 0.00 | 0.00 | 0.00 | 71 | 1014.0 |
| 20260905115105 | 80 | 182 | 6.0 | 9.0 | 0.00 | 0.00 | 0.00 | 71 | 1013.9 |
| 20260905114605 | 80 | 175 | 5.0 | 9.0 | 0.00 | 0.00 | 0.00 | 71 | 1013.9 |
| 20260905114105 | 80 | 177 | 6.0 | 9.0 | 0.00 | 0.00 | 0.00 | 71 | 1013.9 |
| 20260905113604 | 80 | 182 | 6.0 | 8.0 | 0.00 | 0.00 | 0.00 | 70 | 1013.9 |
| 20260905113105 | 80 | 182 | 6.0 | 8.0 | 0.00 | 0.00 | 0.00 | 70 | 1013.9 |
| 20260905112604 | 80 | 188 | 6.0 | 8.0 | 0.00 | 0.00 | 0.00 | 70 | 1013.9 |
| 20260905112105 | 80 | 186 | 6.0 | 9.0 | 0.00 | 0.00 | 0.00 | 70 | 1014.0 |
| 20260905111605 | 80 | 189 | 5.0 | 9.0 | 0.00 | 0.00 | 0.00 | 69 | 1014.0 |
| 20260905111104 | 80 | 184 | 5.0 | 8.0 | 0.00 | 0.00 | 0.00 | 69 | 1014.0 |
| 20260905110605 | 81 | 185 | 6.0 | 9.0 | 0.00 | 0.00 | 0.00 | 69 | 1014.0 |
| 20260905110105 | 81 | 193 | 6.0 | 9.0 | 0.00 | 0.00 | 0.00 | 69 | 1014.1 |
| 20260905105605 | 81 | 181 | 6.0 | 9.0 | 0.00 | 0.00 | 0.00 | 69 | 1014.1 |
| 20260905105104 | 81 | 184 | 6.0 | 9.0 | 0.00 | 0.00 | 0.00 | 69 | 1014.0 |
| 20260905104104 | 81 | 186 | 6.0 | 9.0 | 0.00 | 0.00 | 0.00 | 69 | 1014.1 |
| 20260905103604 | 81 | 184 | 6.0 | 9.0 | 0.00 | 0.00 | 0.00 | 69 | 1014.1 |
| 20260905103105 | 81 | 185 | 6.0 | 8.0 | 0.00 | 0.00 | 0.00 | 68 | 1014.2 |
| 20260905102104 | 82 | 189 | 5.0 | 9.0 | 0.00 | 0.00 | 0.00 | 68 | 1013.9 |
| 20260905101105 | 82 | 182 | 6.0 | 10.0 | 0.00 | 0.00 | 0.00 | 67 | 1013.9 |
| 20260905100604 | 82 | 187 | 6.0 | 10.0 | 0.00 | 0.00 | 0.00 | 67 | 1013.8 |
| 20260905100104 | 82 | 183 | 5.0 | 9.0 | 0.00 | 0.00 | 0.00 | 67 | 1013.9 |
| 20260905095604 | 82 | 178 | 6.0 | 12.0 | 0.00 | 0.00 | 0.00 | 66 | 1013.8 |
| 20260905094604 | 83 | 173 | 7.0 | 12.0 | 0.00 | 0.00 | 0.00 | 66 | 1013.9 |
| 20260905094105 | 83 | 172 | 6.0 | 10.0 | 0.00 | 0.00 | 0.00 | 66 | 1013.9 |
| 20260905093105 | 83 | 174 | 7.0 | 12.0 | 0.00 | 0.00 | 0.00 | 66 | 1013.9 |
| 20260905092104 | 83 | 170 | 7.0 | 12.0 | 0.00 | 0.00 | 0.00 | 65 | 1013.8 |
| 20260905091104 | 83 | 175 | 7.0 | 12.0 | 0.00 | 0.00 | 0.00 | 65 | 1013.9 |
| 20260905090605 | 83 | 175 | 7.0 | 12.0 | 0.00 | 0.00 | 0.00 | 65 | 1013.9 |
| 20260905090105 | 83 | 182 | 6.0 | 12.0 | 0.00 | 0.00 | 0.00 | 65 | 1013.9 |
| 20260905085605 | 83 | 175 | 7.0 | 12.0 | 0.00 | 0.00 | 0.00 | 65 | 1013.9 |
| 20260905085105 | 83 | 181 | 6.0 | 12.0 | 0.00 | 0.00 | 0.00 | 65 | 1013.9 |
| 20260905084604 | 84 | 174 | 6.0 | 12.0 | 0.00 | 0.00 | 0.00 | 64 | 1013.9 |
| 20260905084105 | 84 | 179 | 7.0 | 12.0 | 0.00 | 0.00 | 0.00 | 64 | 1013.9 |
| 20260905083604 | 84 | 183 | 7.0 | 12.0 | 0.00 | 0.00 | 0.00 | 64 | 1013.8 |
| 20260905083105 | 84 | 183 | 7.0 | 12.0 | 0.00 | 0.00 | 0.00 | 64 | 1013.8 |
| 20260905082605 | 84 | 190 | 6.0 | 12.0 | 0.00 | 0.00 | 0.00 | 64 | 1013.7 |
| 20260905082105 | 84 | 176 | 7.0 | 14.0 | 0.00 | 0.00 | 0.00 | 64 | 1013.6 |
| 20260905081605 | 84 | 195 | 8.0 | 15.0 | 0.00 | 0.00 | 0.00 | 64 | 1013.6 |
| 20260905080604 | 85 | 175 | 9.0 | 15.0 | 0.00 | 0.00 | 0.00 | 63 | 1013.5 |
| 20260905080104 | 85 | 173 | 9.0 | 15.0 | 0.00 | 0.00 | 0.00 | 63 | 1013.5 |
| 20260905075104 | 85 | 168 | 10.0 | 16.0 | 0.00 | 0.00 | 0.00 | 62 | 1013.4 |
| 20260905074605 | 85 | 182 | 10.0 | 16.0 | 0.00 | 0.00 | 0.00 | 62 | 1013.4 |
| 20260905073605 | 85 | 176 | 10.0 | 16.0 | 0.00 | 0.00 | 0.00 | 62 | 1013.4 |
| 20260905073105 | 85 | 169 | 10.0 | 16.0 | 0.00 | 0.00 | 0.00 | 62 | 1013.5 |
| 20260905072104 | 86 | 173 | 12.0 | 20.0 | 0.00 | 0.00 | 0.00 | 61 | 1013.6 |
| 20260905071105 | 86 | 182 | 12.0 | 16.0 | 0.00 | 0.00 | 0.00 | 61 | 1013.6 |
| 20260905070605 | 86 | 169 | 10.0 | 15.0 | 0.00 | 0.00 | 0.00 | 60 | 1013.6 |
| 20260905070105 | 86 | 170 | 10.0 | 15.0 | 0.00 | 0.00 | 0.00 | 60 | 1013.6 |
| 20260905065605 | 86 | 174 | 9.0 | 15.0 | 0.00 | 0.00 | 0.00 | 60 | 1013.7 |
| 20260905065104 | 86 | 172 | 9.0 | 15.0 | 0.00 | 0.00 | 0.00 | 60 | 1013.7 |
| 20260905064604 | 86 | 162 | 10.0 | 16.0 | 0.00 | 0.00 | 0.00 | 60 | 1013.7 |
| 20260905064104 | 86 | 162 | 9.0 | 16.0 | 0.00 | 0.00 | 0.00 | 60 | 1013.7 |
| 20260905063605 | 87 | 179 | 10.0 | 15.0 | 0.00 | 0.00 | 0.00 | 60 | 1013.7 |
| 20260905062604 | 87 | 169 | 9.0 | 16.0 | 0.00 | 0.00 | 0.00 | 60 | 1013.8 |
| 20260905062104 | 87 | 160 | 10.0 | 16.0 | 0.00 | 0.00 | 0.00 | 59 | 1013.8 |
| 20260905061604 | 87 | 175 | 9.0 | 13.0 | 0.00 | 0.00 | 0.00 | 59 | 1013.8 |
| 20260905061105 | 87 | 177 | 9.0 | 15.0 | 0.00 | 0.00 | 0.00 | 59 | 1013.8 |
| 20260905060604 | 87 | 171 | 9.0 | 17.0 | 0.00 | 0.00 | 0.00 | 59 | 1013.8 |
| 20260905060104 | 87 | 171 | 10.0 | 17.0 | 0.00 | 0.00 | 0.00 | 58 | 1013.8 |
| 20260905055604 | 87 | 165 | 8.0 | 20.0 | 0.00 | 0.00 | 0.00 | 58 | 1013.8 |
| 20260905055104 | 87 | 168 | 7.0 | 20.0 | 0.00 | 0.00 | 0.00 | 58 | 1013.8 |
| 20260905054604 | 87 | 148 | 9.0 | 20.0 | 0.00 | 0.00 | 0.00 | 58 | 1013.8 |
| 20260905053605 | 88 | 162 | 10.0 | 14.0 | 0.00 | 0.00 | 0.00 | 57 | 1013.8 |
| 20260905052604 | 88 | 171 | 9.0 | 15.0 | 0.00 | 0.00 | 0.00 | 57 | 1013.8 |
| 20260905052104 | 88 | 151 | 10.0 | 14.0 | 0.00 | 0.00 | 0.00 | 57 | 1013.8 |
| 20260905051604 | 88 | 161 | 9.0 | 12.0 | 0.00 | 0.00 | 0.00 | 57 | 1013.8 |
| 20260905051105 | 88 | 159 | 8.0 | 14.0 | 0.00 | 0.00 | 0.00 | 57 | 1013.8 |
| 20260905050604 | 88 | 156 | 7.0 | 15.0 | 0.00 | 0.00 | 0.00 | 56 | 1013.8 |
| 20260905050104 | 88 | 158 | 10.0 | 15.0 | 0.00 | 0.00 | 0.00 | 56 | 1013.8 |
| 20260905045604 | 89 | 172 | 9.0 | 16.0 | 0.00 | 0.00 | 0.00 | 56 | 1013.8 |
| 20260905045105 | 89 | 160 | 9.0 | 16.0 | 0.00 | 0.00 | 0.00 | 56 | 1013.7 |
| 20260905044604 | 89 | 164 | 10.0 | 16.0 | 0.00 | 0.00 | 0.00 | 56 | 1013.7 |
| 20260905044104 | 89 | 175 | 9.0 | 16.0 | 0.00 | 0.00 | 0.00 | 56 | 1013.8 |
| 20260905043604 | 89 | 165 | 9.0 | 16.0 | 0.00 | 0.00 | 0.00 | 55 | 1013.8 |
| 20260905043104 | 89 | 160 | 10.0 | 16.0 | 0.00 | 0.00 | 0.00 | 55 | 1013.9 |
| 20260905042104 | 90 | 164 | 10.0 | 16.0 | 0.00 | 0.00 | 0.00 | 55 | 1013.8 |
| 20260905040604 | 90 | 173 | 10.0 | 16.0 | 0.00 | 0.00 | 0.00 | 54 | 1013.8 |
| 20260905040104 | 90 | 162 | 9.0 | 17.0 | 0.00 | 0.00 | 0.00 | 54 | 1013.8 |
| 20260905035605 | 91 | 163 | 12.0 | 17.0 | 0.00 | 0.00 | 0.00 | 53 | 1013.7 |
| 20260905035104 | 91 | 158 | 10.0 | 20.0 | 0.00 | 0.00 | 0.00 | 53 | 1013.7 |
| 20260905034604 | 91 | 162 | 12.0 | 20.0 | 0.00 | 0.00 | 0.00 | 53 | 1013.7 |
| 20260905033104 | 91 | 156 | 10.0 | 17.0 | 0.00 | 0.00 | 0.00 | 52 | 1013.6 |
| 20260905032604 | 91 | 162 | 10.0 | 16.0 | 0.00 | 0.00 | 0.00 | 52 | 1013.5 |
| 20260905032105 | 92 | 141 | 9.0 | 16.0 | 0.00 | 0.00 | 0.00 | 52 | 1013.5 |
| 20260905031604 | 92 | 161 | 9.0 | 13.0 | 0.00 | 0.00 | 0.00 | 51 | 1013.4 |
| 20260905030604 | 92 | 166 | 8.0 | 18.0 | 0.00 | 0.00 | 0.00 | 51 | 1013.2 |
| 20260905030104 | 92 | 148 | 9.0 | 18.0 | 0.00 | 0.00 | 0.00 | 51 | 1013.1 |
| 20260905025604 | 92 | 143 | 11.0 | 18.0 | 0.00 | 0.00 | 0.00 | 50 | 1013.0 |
| 20260905025105 | 92 | 149 | 10.0 | 13.0 | 0.00 | 0.00 | 0.00 | 50 | 1012.9 |
| 20260905024604 | 92 | 152 | 9.0 | 15.0 | 0.00 | 0.00 | 0.00 | 50 | 1012.8 |
| 20260905024104 | 93 | 158 | 10.0 | 15.0 | 0.00 | 0.00 | 0.00 | 50 | 1012.8 |
| 20260905023605 | 93 | 155 | 7.0 | 15.0 | 0.00 | 0.00 | 0.00 | 50 | 1012.7 |
| 20260905022104 | 93 | 158 | 8.0 | 20.0 | 0.00 | 0.00 | 0.00 | 49 | 1012.4 |
| 20260905021104 | 93 | 152 | 10.0 | 14.0 | 0.00 | 0.00 | 0.00 | 49 | 1012.2 |
| 20260905020604 | 93 | 151 | 9.0 | 16.0 | 0.00 | 0.00 | 0.00 | 49 | 1012.2 |
| 20260905020105 | 94 | 157 | 7.0 | 16.0 | 0.00 | 0.00 | 0.00 | 49 | 1012.1 |
| 20260905015604 | 94 | 152 | 9.0 | 14.0 | 0.00 | 0.00 | 0.00 | 49 | 1012.1 |
| 20260905015104 | 94 | 146 | 9.0 | 14.0 | 0.00 | 0.00 | 0.00 | 48 | 1012.0 |
| 20260905014105 | 94 | 153 | 8.0 | 12.0 | 0.00 | 0.00 | 0.00 | 49 | 1011.8 |
| 20260905013604 | 94 | 156 | 6.0 | 12.0 | 0.00 | 0.00 | 0.00 | 49 | 1011.8 |
| 20260905012605 | 94 | 152 | 7.0 | 15.0 | 0.00 | 0.00 | 0.00 | 48 | 1011.7 |
| 20260905012104 | 95 | 150 | 9.0 | 15.0 | 0.00 | 0.00 | 0.00 | 48 | 1011.6 |
| 20260905011604 | 95 | 156 | 10.0 | 15.0 | 0.00 | 0.00 | 0.00 | 48 | 1011.6 |
| 20260905010604 | 95 | 154 | 8.0 | 12.0 | 0.00 | 0.00 | 0.00 | 48 | 1011.4 |
| 20260905010104 | 95 | 156 | 7.0 | 13.0 | 0.00 | 0.00 | 0.00 | 47 | 1011.3 |
| 20260905005604 | 95 | 150 | 8.0 | 16.0 | 0.00 | 0.00 | 0.00 | 47 | 1011.3 |
| 20260905005104 | 96 | 142 | 8.0 | 17.0 | 0.00 | 0.00 | 0.00 | 47 | 1011.3 |
| 20260905004606 | 96 | 148 | 11.0 | 17.0 | 0.00 | 0.00 | 0.00 | 46 | 1011.3 |
| 20260905004104 | 96 | 153 | 8.0 | 14.0 | 0.00 | 0.00 | 0.00 | 46 | 1011.2 |
| 20260905003605 | 96 | 152 | 9.0 | 14.0 | 0.00 | 0.00 | 0.00 | 46 | 1011.2 |
| 20260905003104 | 97 | 141 | 10.0 | 15.0 | 0.00 | 0.00 | 0.00 | 46 | 1011.2 |
| 20260905002604 | 97 | 143 | 10.0 | 16.0 | 0.00 | 0.00 | 0.00 | 45 | 1011.2 |
| 20260905001604 | 97 | 154 | 12.0 | 16.0 | 0.00 | 0.00 | 0.00 | 45 | 1011.1 |
| 20260905001104 | 97 | 136 | 11.0 | 16.0 | 0.00 | 0.00 | 0.00 | 45 | 1011.2 |
| 20260905000604 | 98 | 157 | 9.0 | 13.0 | 0.00 | 0.00 | 0.00 | 44 | 1011.1 |
| 20260905000104 | 98 | 149 | 10.0 | 15.0 | 0.00 | 0.00 | 0.00 | 44 | 1011.1 |
| 20260904235605 | 98 | 154 | 9.0 | 18.0 | 0.00 | 0.00 | 0.00 | 44 | 1011.1 |
| 20260904235104 | 98 | 130 | 10.0 | 18.0 | 0.00 | 0.00 | 0.00 | 44 | 1011.1 |
| 20260904233604 | 99 | 150 | 11.0 | 18.0 | 0.00 | 0.00 | 0.00 | 43 | 1011.1 |
| 20260904233104 | 99 | 148 | 12.0 | 18.0 | 0.00 | 0.00 | 0.00 | 43 | 1011.1 |
| 20260904232104 | 100 | 136 | 9.0 | 16.0 | 0.00 | 0.00 | 0.00 | 43 | 1011.1 |
| 20260904231104 | 100 | 162 | 7.0 | 16.0 | 0.00 | 0.00 | 0.00 | 43 | 1011.0 |
| 20260904230104 | 100 | 142 | 10.0 | 17.0 | 0.00 | 0.00 | 0.00 | 42 | 1011.1 |
| 20260904225604 | 100 | 140 | 11.0 | 17.0 | 0.00 | 0.00 | 0.00 | 42 | 1011.1 |
| 20260904225104 | 100 | 139 | 7.0 | 16.0 | 0.00 | 0.00 | 0.00 | 43 | 1011.0 |
| 20260904224604 | 100 | 134 | 10.0 | 21.0 | 0.00 | 0.00 | 0.00 | 43 | 1011.0 |
| 20260904224105 | 100 | 155 | 11.0 | 21.0 | 0.00 | 0.00 | 0.00 | 43 | 1010.9 |
| 20260904223604 | 100 | 149 | 12.0 | 18.0 | 0.00 | 0.00 | 0.00 | 43 | 1011.0 |
| 20260904223105 | 100 | 151 | 10.0 | 17.0 | 0.00 | 0.00 | 0.00 | 43 | 1011.0 |
| 20260904221604 | 100 | 132 | 13.0 | 18.0 | 0.00 | 0.00 | 0.00 | 42 | 1011.1 |
| 20260904221105 | 101 | 128 | 10.0 | 16.0 | 0.00 | 0.00 | 0.00 | 42 | 1011.1 |
| 20260904220604 | 101 | 130 | 10.0 | 16.0 | 0.00 | 0.00 | 0.00 | 42 | 1011.1 |
| 20260904220104 | 101 | 131 | 10.0 | 20.0 | 0.00 | 0.00 | 0.00 | 42 | 1011.1 |
| 20260904215604 | 101 | 130 | 11.0 | 20.0 | 0.00 | 0.00 | 0.00 | 42 | 1011.2 |
| 20260904215104 | 101 | 152 | 11.0 | 16.0 | 0.00 | 0.00 | 0.00 | 42 | 1011.1 |
| 20260904214604 | 101 | 174 | 10.0 | 18.0 | 0.00 | 0.00 | 0.00 | 42 | 1011.2 |
| 20260904214104 | 101 | 157 | 10.0 | 18.0 | 0.00 | 0.00 | 0.00 | 42 | 1011.3 |
| 20260904213604 | 100 | 140 | 12.0 | 20.0 | 0.00 | 0.00 | 0.00 | 43 | 1011.3 |
| 20260904213104 | 100 | 133 | 9.0 | 22.0 | 0.00 | 0.00 | 0.00 | 43 | 1011.3 |
| 20260904212604 | 101 | 175 | 12.0 | 22.0 | 0.00 | 0.00 | 0.00 | 42 | 1011.4 |
| 20260904212104 | 101 | 127 | 10.0 | 20.0 | 0.00 | 0.00 | 0.00 | 43 | 1011.5 |
| 20260904211604 | 101 | 177 | 14.0 | 22.0 | 0.00 | 0.00 | 0.00 | 42 | 1011.5 |
| 20260904210604 | 101 | 144 | 13.0 | 20.0 | 0.00 | 0.00 | 0.00 | 42 | 1011.5 |
| 20260904210104 | 101 | 143 | 10.0 | 18.0 | 0.00 | 0.00 | 0.00 | 42 | 1011.5 |
| 20260904205104 | 101 | 137 | 10.0 | 16.0 | 0.00 | 0.00 | 0.00 | 41 | 1011.7 |
| 20260904204605 | 102 | 164 | 9.0 | 20.0 | 0.00 | 0.00 | 0.00 | 40 | 1011.7 |
| 20260904204104 | 102 | 175 | 12.0 | 20.0 | 0.00 | 0.00 | 0.00 | 39 | 1011.8 |
| 20260904203604 | 101 | 137 | 12.0 | 18.0 | 0.00 | 0.00 | 0.00 | 40 | 1011.8 |
| 20260904203104 | 101 | 156 | 4.0 | 20.0 | 0.00 | 0.00 | 0.00 | 42 | 1011.8 |
| 20260904202604 | 101 | 156 | 13.0 | 22.0 | 0.00 | 0.00 | 0.00 | 40 | 1011.9 |
| 20260904202104 | 101 | 156 | 13.0 | 22.0 | 0.00 | 0.00 | 0.00 | 41 | 1012.0 |
| 20260904201104 | 101 | 151 | 12.0 | 21.0 | 0.00 | 0.00 | 0.00 | 41 | 1012.1 |
| 20260904200605 | 101 | 168 | 14.0 | 21.0 | 0.00 | 0.00 | 0.00 | 41 | 1012.1 |
| 20260904200104 | 100 | 122 | 10.0 | 20.0 | 0.00 | 0.00 | 0.00 | 42 | 1012.2 |
| 20260904195604 | 101 | 171 | 10.0 | 18.0 | 0.00 | 0.00 | 0.00 | 42 | 1012.2 |
| 20260904194604 | 100 | 189 | 13.0 | 22.0 | 0.00 | 0.00 | 0.00 | 42 | 1012.3 |
| 20260904193604 | 100 | 152 | 14.0 | 22.0 | 0.00 | 0.00 | 0.00 | 42 | 1012.4 |
| 20260904193104 | 100 | 168 | 12.0 | 21.0 | 0.00 | 0.00 | 0.00 | 43 | 1012.5 |
| 20260904192104 | 100 | 163 | 10.0 | 16.0 | 0.00 | 0.00 | 0.00 | 43 | 1012.6 |
| 20260904191604 | 100 | 163 | 9.0 | 16.0 | 0.00 | 0.00 | 0.00 | 44 | 1012.6 |
| 20260904190604 | 99 | 149 | 11.0 | 16.0 | 0.00 | 0.00 | 0.00 | 45 | 1012.6 |
| 20260904190104 | 99 | 167 | 9.0 | 16.0 | 0.00 | 0.00 | 0.00 | 46 | 1012.8 |
| 20260904185604 | 98 | 162 | 10.0 | 16.0 | 0.00 | 0.00 | 0.00 | 46 | 1012.8 |
| 20260904184604 | 98 | 167 | 11.0 | 20.0 | 0.00 | 0.00 | 0.00 | 47 | 1013.0 |